Location: Roanoke
(37.2710°N, 79.9420°W)
Time: 20:50:14
(UTC-04:00)

N. Korean satellite - Visible Passes

Search period start: 22 October 2019 00:00
Search period end: 01 November 2019 00:00
Orbit: 455 x 508 km, 97.2° (Epoch: 22 October)

Date Brightness Start Highest point End Pass type
(mag) Time Alt. Az. Time Alt. Az. Time Alt. Az.
22 Oct 10.1 06:18:31 10° ENE 06:20:44 15° E 06:22:57 10° SE visible
23 Oct 10.3 19:34:16 10° WSW 19:35:35 12° W 19:36:57 10° WNW visible
24 Oct 7.5 07:00:02 10° NNE 07:03:38 56° E 07:07:16 10° S visible
24 Oct 9.2 19:07:14 10° SSW 19:10:07 25° W 19:13:03 10° NW visible
25 Oct 9.2 06:35:11 10° NE 06:38:17 25° E 06:41:23 10° SSE visible
26 Oct 10.3 06:11:14 10° ENE 06:12:50 12° E 06:14:26 10° ESE visible
27 Oct 10.0 19:25:34 10° SW 19:27:38 15° W 19:29:44 10° NW visible
28 Oct 8.0 06:52:13 10° NNE 06:55:46 44° E 06:59:19 10° S visible
28 Oct 8.6 18:59:04 10° SSW 19:02:11 32° W 19:05:22 10° NNW visible
29 Oct 9.6 06:27:32 10° NE 06:30:23 21° E 06:33:12 10° SE visible
31 Oct 6.8 07:09:29 10° NNE 07:13:12 80° ESE 07:16:55 10° S visible
31 Oct 9.7 19:17:06 10° SW 19:19:39 19° W 19:22:14 10° NW visible
